Regional Weather Roundup
Issued by NWS

Home | Current Version | Previous Version | Text Only | Print | Product List | Glossary Off
Versions: 1 2 3 4 5 6 7 8 9 10 11 12 13 14 15 16 17 18 19 20 21 22 23 24 25 26 27 28 29 30 31 32 33 34 35 36 37 38 39 40 41 42 43 44 45 46 47 48 49 50

000
ASUS45 KBOU 220007
RWRCO

WEATHER ROUNDUP FOR COLORADO
NATIONAL WEATHER SERVICE DENVER/BOULDER CO
600 PM MDT THU AUG 21 2014

NOTE: "FAIR" INDICATES FEW OR NO CLOUDS BELOW 12000 FEET WITH NO
SIGNIFICANT WEATHER AND/OR OBSTRUCTIONS TO VISIBILITY.

COZ001>005-013-030-031-220100-
...NORTHWEST COLORADO...

CITY           SKY/WX    TMP DP  RH WIND       PRES   REMARKS
CRAIG          PTSUNNY   76  44  32 W10G18    30.18S
HAYDEN         CLOUDY    73  39  29 W13G18    30.21R
MEEKER         PTSUNNY   74  42  31 SW5       30.19S
MOUNT WERNER   NOT AVBL
STEAMBOAT SPGS CLOUDY    69  44  40 W6        30.23R
WALDEN         PTSUNNY   64  37  36 SW10      30.31R
$$

COZ006>008-011-220100-
...WEST CENTRAL VALLEYS...

CITY           SKY/WX    TMP DP  RH WIND       PRES   REMARKS
GRAND JUNCTION CLOUDY    78  42  27 CALM      30.08F
MONTROSE       CLOUDY    77  45  32 NW13      30.16S
EAGLE          CLOUDY    73  43  33 W7        30.23R
RIFLE          CLOUDY    77  34  21 W10       30.13S
DELTA          CLOUDY    83  40  22 W5        30.11S
NUCLA          CLOUDY    79  37  22 N7        30.18F
$$

COZ017>023-064>068-220100-
...SOUTHWEST COLORADO...

CITY           SKY/WX    TMP DP  RH WIND       PRES   REMARKS
DURANGO        CLOUDY    75  37  25 NW13      30.18S
CORTEZ         SUNNY     78  33  19 NW12      30.16S
PAGOSA SPRINGS CLOUDY    74  30  19 W10       30.26S
TELLURIDE      CLOUDY    57  43  58 E8        30.40S
WOLF CREEK PAS NOT AVBL
$$

COZ009-010-012-014-032>034-037-058>063-220100-
...CENTRAL COLORADO...

CITY           SKY/WX    TMP DP  RH WIND       PRES   REMARKS
ASPEN          PTSUNNY   69  37  30 NW8       30.28F
BUENA VISTA    CLOUDY    72  33  24 W9        30.26S
COPPER MTN     CLOUDY    52  36  54 W9        30.60R
BERTHOUD PASS  CLOUDY    43  41  93 NW13      30.64R
COTTONWOOD PAS CLOUDY    66  28  24 W9        30.42R
GUNNISON       CLOUDY    70  36  28 SW10      30.29R
KREMMLING      CLOUDY    70  28  21 SW10      30.27S
LEADVILLE      CLOUDY    57  35  43 N8        30.42S
SALIDA         CLOUDY    76  29  18 W10       30.30R
SUNLIGHT       CLOUDY    54  41  62 CALM      30.53S
WILKERSON PASS PTSUNNY   55  36  47 E6        30.55S
$$

COZ069>075-220100-
...SAN LUIS VALLEY/SANGRE DE CRISTO MOUNTAINS...

CITY           SKY/WX    TMP DP  RH WIND       PRES   REMARKS
ALAMOSA        PTSUNNY   77  33  20 E6        30.21F
LA VETA PASS   NOT AVBL
SAGUACHE       PTSUNNY   72  36  26 NW16      30.28R
$$

COZ035-036-038>040-220100-
...NORTHERN COLORADO FRONT RANGE...

CITY           SKY/WX    TMP DP  RH WIND       PRES   REMARKS
DENVER INTL AP PTSUNNY   84  43  23 NE7       30.08S
DMNS CITY PARK   N/A     81  44  26 NW6       30.07S
AURORA         PTSUNNY   81  47  29 N6        30.10S
FRONT RANGE AP PTSUNNY   84  48  28 SE12G18   30.09S
ERIE MUNI ARPT CLOUDY    82  40  23 CALM      30.07S
BOULDER MUN AP CLOUDY    79  45  29 S8        30.09R
CENTENNIAL     PTSUNNY   81  41  24 N7        30.11S THUNDER
BROOMFIELD     PTSUNNY   81  41  24 S5        30.12R
FORT COLLINS   PTSUNNY   75  46  35 N16       30.07R
LONGMONT       PTSUNNY   82  48  30 NW5       30.08R HAZE
$$

COZ041-046-047-076>085-087-088-220100-
...PIKES PEAK/PALMER DIVIDE AND SOUTHERN FOOTHILLS...

CITY           SKY/WX    TMP DP  RH WIND       PRES   REMARKS
COLO. SPRINGS  MOSUNNY   83  38  20 S8        30.13S
A. F. ACADEMY  PTSUNNY   78  39  24 SE9       30.15S
ELLICOTT       MOSUNNY   83  42  23 SE8       30.12S
FALCON         MOSUNNY   79  40  25 S7        30.20S
FORT CARSON    NOT AVBL
LIMON          MOSUNNY   81  46  29 E9        30.08S
MONUMENT HILL  MOSUNNY   72  43  35 S7        30.20S
TRINIDAD       PTSUNNY   86  43  22 E6        30.08S
$$

COZ042>045-048>051-090-091-220100-
...NORTHEAST COLORADO...

CITY           SKY/WX    TMP DP  RH WIND       PRES   REMARKS
GREELEY ARPT   PTSUNNY   84  48  28 N12       30.05S
AKRON          MOSUNNY   84  44  24 S12       30.05R
BURLINGTON     SUNNY     90  45  21 E6        30.01R
WRAY             N/A     91  46  20 N9        29.98R
STERLING       MOSUNNY   90  52  27 NE6       29.99S
HOLYOKE        NOT AVBL
FORT MORGAN    MOSUNNY   84  45  25 E6        30.04S
$$

COZ086-089-092>099-220100-
...SOUTHEAST COLORADO...

CITY           SKY/WX    TMP DP  RH WIND       PRES   REMARKS
PUEBLO         MOSUNNY   90  38  16 E9        29.99S
LA JUNTA       MOSUNNY   92  52  25 E12       29.98
LAMAR          SUNNY     94  52  24 NE9       29.93
SPRINGFIELD      N/A     89  52  28 SE14G21   30.00
$$



USA.gov is the U.S. government's official web portal to all federal, state and local government web resources and services.